Regional Weather Roundup
Issued by NWS

Home | Current Version | Previous Version | Text Only | Print | Product List | Glossary On
Versions: 1 2 3 4 5 6 7 8 9 10 11 12 13 14 15 16 17 18 19 20 21 22 23 24 25 26 27 28 29 30 31 32 33 34 35 36 37 38 39 40 41 42 43 44 45 46 47 48 49 50
000
ASUS44 KOUN 250210
RWROK

WEATHER ROUNDUP FOR OKLAHOMA
NATIONAL WEATHER SERVICE NORMAN OK
800 PM CST FRI NOV 24 2017

NOTE: "FAIR" INDICATES FEW OR NO CLOUDS BELOW 12,000 FEET WITH NO
      SIGNIFICANT WEATHER AND/OR OBSTRUCTIONS TO VISIBILITY.

OKZ001>007-009>012-014-015-017-250300-
NORTHWEST OKLAHOMA AND THE PANHANDLE

CITY           SKY/WX    TMP DP  RH WIND       PRES   REMARKS
GAGE           CLEAR     54  34  46 N12       29.78R
GUYMON         CLEAR     61  35  37 NE15      29.86R
ENID/WOODRING  PTCLDY    54  41  62 S10       29.76R
$$

OKZ016-021>023-033>039-044-045-250300-
SOUTHWEST OKLAHOMA

CITY           SKY/WX    TMP DP  RH WIND       PRES   REMARKS
LAWTON/REGL    CLEAR     58  38  47 E7        29.72R
LAWTON/FT SILL CLEAR     61  41  48 S8        29.72R
FREDERICK      CLEAR     59  38  45 SE9       29.67R
CLINTON        PTCLDY    56  35  45 SE9       29.75R
HOBART         PTCLDY    62  37  39 S9        29.73R
ALTUS AFB      CLOUDY    57  34  42 E6        29.70R
$$

OKZ018>020-024>031-250300-
CENTRAL OKLAHOMA

CITY           SKY/WX    TMP DP  RH WIND       PRES   REMARKS
OKLAHOMA CITY  MOCLDY    61  36  39 S9        29.77R
OKC/WILEY POST MOCLDY    64  36  35 SE8       29.78R
OKC/TINKER AFB PTCLDY    62  37  39 S7        29.78R
STILLWATER     CLEAR     59  32  36 SE6       29.78R
GUTHRIE        PTCLDY    61  38  42 E6        29.79R
$$

OKZ008-013-054>072-250300-
NORTHEAST OKLAHOMA

CITY           SKY/WX    TMP DP  RH WIND       PRES   REMARKS
TULSA          PTCLDY    65  36  34 S10       29.79R
TULSA/JONES    CLEAR     54  37  52 SW3       29.80R
PONCA CITY     CLEAR     65  37  35 S3        29.76R
BARTLESVILLE   CLEAR     64  36  35 S7        29.78R
MUSKOGEE       PTCLDY    60  35  39 S3        29.82R
$$

OKZ032-040>043-046>053-073>077-250300-
SOUTH CENTRAL/SOUTHEAST OKLAHOMA

CITY           SKY/WX    TMP DP  RH WIND       PRES   REMARKS
ARDMORE/DWNTWN CLEAR     61  34  36 CALM      29.78R
MCALESTER      PTCLDY    66  37  34 S7        29.80R
$$





USA.gov is the U.S. government's official web portal to all federal, state and local government web resources and services.